sat.trackr.live / text

‹ back to catalog

STARLINK-4080

NORAD 52835 · 2022-062F

PAYLOAD ACTIVE UNKNOWN

§ Identity

Operator
Country
US
Launch date
2022-06-17
Launch site
AFETR
Launch vehicle
Mass (kg)
RCS (m²)

Purposes: comms

External: N2YO · Heavens-Above · Gunter

§ Orbital elements

Epoch: 2026-09-20T05:08:33.417024Z

Period
94.01 min
Inclination
53.1567°
Eccentricity
0.0001248
Mean motion
15.31702174 rev/d
Perigee alt
469.9 km
Apogee alt
471.6 km
Semi-major
6,848.9 km
B*
2.9760e-5
RAAN
230.1443°
Arg perigee
92.6514°
Mean anomaly
267.4631°
Rev number
23,529

§ Raw data

STARLINK-40801 52835U 22062F   26263.21427566  .00000558  00000+0  29760-4 0  99922 52835  53.1567 230.1443 0001248  92.6514 267.4631 15.31702174235292

JSON: /api/v1/satellites/52835 · /tle

For live sub-satellite position, see the globe view (requires WebGL).

§ Visibility from observer

Set your observer location to see the next 7 days of passes ≥ 10°. The values pass through the URL so the page stays shareable.

No JS? Fill the form by hand. The geolocation button needs JavaScript.